Other Public Products
Issued by NWS Grand Forks, ND

Home | Current Version | Previous Version | Graphics & Text | Print | Product List | Glossary On
Versions: 1 2 3 4 5 6 7 8 9 10 11 12 13 14 15 16 17 18 19 20 21 22 23 24 25 26 27 28 29 30 31 32 33 34 35 36 37 38 39 40 41 42 43 44 45 46 47 48 49 50
000
FPUS83 KFGF 300431
OPUFGF
PRAIRIE TO PINES WEATHER ROUNDUP
NATIONAL WEATHER SERVICE EASTERN NORTH DAKOTA/GRAND FORKS ND
1100 PM CDT TUE JUL 29 2014

 **SATELLITE DATA USED TO AUGMENT SKY COVER AT AUTOMATED STATIONS**
 *****  WEATHER ACROSS EASTERN NORTH DAKOTA  *****

CITY           SKY/WX    TMP DP  RH WIND       PRES   REMARKS
GRAND FORKS    CLEAR     60  56  86 W3        30.10R
GRAND FORKS AF CLEAR     59  58  99 W3        30.11S
GRAND CITY NWS   N/A     61 N/A N/A MISG        N/A
BUXTON           N/A     65  60  82 CALM        N/A
DEVILS LAKE    CLEAR     63  54  72 CALM      30.13S
FARGO          CLEAR     62  55  77 CALM      30.11R
WAHPETON ARPT  CLEAR     59  52  77 CALM      30.12R
$$

 *****  WEATHER ACROSS CENTRAL AND WESTERN NORTH DAKOTA  *****

CITY           SKY/WX    TMP DP  RH WIND       PRES   REMARKS
JAMESTOWN      CLEAR     61  55  81 N6        30.14R
BISMARCK       CLEAR     66  58  75 E7        30.16R
MINOT          CLEAR     62  59  90 NE5       30.15R
MINOT AFB      CLEAR     66  65  96 CALM      30.15R
GARRISON         N/A     65  61  87 E3        30.16R
WILLISTON      CLEAR     70  57  63 NE8       30.17R
DICKINSON      CLEAR     60  56  86 NE6       30.17R
HETTINGER      MOCLDY    66  53  63 E7        30.17R
$$

 *****  OTHER OBSERVATIONS NORTHEAST NORTH DAKOTA  *****

CITY           SKY/WX    TMP DP  RH WIND       PRES   REMARKS
WALHALLA         N/A     57  57 100 CALM        N/A
LANGDON        FAIR      55  54  94 CALM      30.14S
CAVALIER       FAIR      59  55  88 W3        30.11S
GRAFTON        FAIR      63  55  77 NW5       30.10S
CANDO          FAIR      57  55  94 W3        30.15S
FORT TOTTEN      N/A     59  53  80 CALM      29.95S
ROLLA          FAIR      54  54 100 W3        30.17S
RUGBY          FAIR      59  59 100 CALM      30.15S
 ***** THE ABOVE OBSERVATIONS ARE NON NWS ARE NOT QUALITY
        CONTROLLED AND MAY MIS-REPORT RAIN FOR SNOW...
$$

 *****  OTHER OBSERVATIONS SOUTHEAST NORTH DAKOTA *****

CITY           SKY/WX    TMP DP  RH WIND       PRES   REMARKS
COOPERSTOWN    NOT AVBL
VALLEY CITY    FAIR      59  55  88 NW5       30.14S
OAKES          NOT AVBL
GWINNER        CLEAR     61  55  82 NW5       30.14S
BUFFALO          N/A     61  53  74 NW5         N/A
WYNDMERE       NOT AVBL
 ***** THE ABOVE OBSERVATIONS ARE NON NWS ARE NOT QUALITY
       CONTROLLED AND MAY MIS-REPORT RAIN FOR SNOW...
$$

  *****  WEATHER ACROSS NORTHERN MINNESOTA  *****

CITY           SKY/WX    TMP DP  RH WIND       PRES   REMARKS
FLAG ISLAND    CLEAR     70  57  64 NW12      30.05S
WARROAD        CLEAR     64  54  68 W7        30.08S
ROSEAU         CLEAR     64  57  77 W7        30.08S
HALLOCK        CLEAR     63  55  77 NW3       30.09F
THF RVR FALLS  CLEAR     63  57  82 CALM      30.10S
HALSTAD          N/A     59  54  83 NW2         N/A
FOSSTON        CLEAR     55  48  76 CALM      30.11S
BAUDETTE       CLEAR     65  55  70 W5        30.07S
WASKISH        CLEAR     66  57  72 CALM      30.07S
CROOKSTON      CLEAR     61  57  88 CALM      30.11S
$$
  *****  WEATHER ACROSS CENTRAL AND WEST MINNESOTA  *****

CITY           SKY/WX    TMP DP  RH WIND       PRES   REMARKS
BEMIDJI        CLEAR     59  55  84 W6        30.09S
PARK RAPIDS    CLEAR     59  54  83 NW3       30.10S
WADENA         CLEAR     59  55  88 W3        30.11R
DETROIT LAKES  CLEAR     63  55  77 CALM      30.13S
MOORHEAD       CLEAR     63  61  94 CALM      30.12R
FERGUS FALLS   CLEAR     63  52  67 CALM      30.12R
ELBOW LAKE     FAIR      61  56  84 CALM      30.12S
MORRIS MN      CLEAR     61  57  88 NW3       30.11S
STAPLES        CLEAR     59  54  82 W3        30.10R
WHEATON        CLEAR     59  55  88 CALM      30.13S
$$
  *****  WEATHER ELSEWHERE ACROSS MINNESOTA  *****

CITY           SKY/WX    TMP DP  RH WIND       PRES   REMARKS
DULUTH         MOCLDY    58  55  90 W7        30.05F
INTRNTL FALLS  PTCLDY    57  56  96 CALM      30.05S
ELY            FOG       50  48  93 CALM      30.06S VSB 3/4
CLOQUET        PTCLDY    55  54  94 CALM      30.06F
BRAINERD       CLEAR     64  56  75 CALM      30.08S
HIBBING        PTCLDY    57  53  86 CALM      30.07R
ALEXANDRIA     CLEAR     65  55  70 NW6       30.13R
SAINT CLOUD    CLEAR     64  54  69 NW3       30.07S
MINNEAPOLIS    PTCLDY    70  55  59 NW6       30.06S
$$

  *****  WEATHER ACROSS SOUTH DAKOTA  *****

CITY           SKY/WX    TMP DP  RH WIND       PRES   REMARKS
SIOUX FALLS    CLEAR     61  54  77 CALM      30.14R
BROOKINGS      NOT AVBL
WATERTOWN      CLEAR     62  53  72 CALM      30.14R
HURON          CLEAR     60  54  80 CALM      30.13R
SISSETON         N/A     57  55  93 CALM      30.11R
ABERDEEN       CLEAR     57  54  89 CALM      30.14R
MITCHELL       CLEAR     65  54  67 CALM      30.14R
PIERRE         PTCLDY    64  54  69 NE3       30.14R
MOBRIDGE       MOCLDY    66  56  70 SE5       30.13R
RAPID CITY     PTCLDY    62  55  77 SW6       30.22R
$$

  *****  SOME WEATHER IN NEARBY STATES *****

CITY           SKY/WX    TMP DP  RH WIND       PRES   REMARKS
GLASGOW MT     CLEAR     70  48  45 E8        30.16R
GREAT FALLS MT PTCLDY    76  43  30 SE6       30.15R
CHEYENNE WY    LGT RAIN  57  55  93 NE13G21   30.34S
SCOTTSBLUFF NE LGT RAIN  65  64  97 W5        30.27R
OMAHA NE       CLEAR     63  58  83 NW5       30.14R
DES MOINES IA  CLEAR     67  56  67 CALM      30.10S
DAVENPORT IA   CLEAR     61  57  87 W7        30.06R
CHICAGO IL     CLOUDY    63  56  78 N10       30.02F
EAU CLAIRE WI  MOCLDY    59  58  96 CALM      30.03F
LA CROSSE WI   CLOUDY    64  59  83 NW8       30.06R
$$

  *****  SOME NATIONAL WEATHER *****

CITY           SKY/WX    TMP DP  RH WIND       PRES   REMARKS
LA GUARDIA NY  MOCLDY    70  53  54 NW7       29.97S
RALEIGH NC     PTCLDY    69  60  73 SE3       30.00S
ATLANTA GA     CLEAR     69  52  54 N9        30.04R
NEW ORLEANS LA PTCLDY    81  64  56 N5        30.04R
OKLAHOMA CITY  CLOUDY    76  61  59 CALM      30.09S
ALBUQUERQUE NM MOCLDY    70  61  73 NW16      30.27R
SALT LAKE CITY MOCLDY    70  62  76 N7        30.15R
LOS ANGELES CA PTCLDY    70  63  78 W7        29.97R
BOISE ID       CLOUDY    85  47  26 E3        30.06R
SEATTLE WA     PTCLDY    77  49  37 E6        30.08S
$$

*** WEATHER ACROSS MANITOBA...SASKATCHEWAN AND ONTARIO ***
                ***ONTARIO***

CITY           SKY/WX    TMP DP  RH WIND       PRES   REMARKS
GERALDTON      PTCLDY    54  52  94 CALM      30.01S
THUNDER BAY    CLEAR     52  48  87 SW5       30.04R
SIOUX LOOKOUT  CLEAR     50  50 100 CALM      30.05S
TORONTO        MOCLDY    61  57  88 S5        29.94F
BIG TROUT LK   CLOUDY    61  48  63 N6        30.00F
PICKLE LAKE    NOT AVBL
DRYDEN         CLEAR     63  55  77 SW5       30.05F
KENORA         MOCLDY    68  59  73 NW6       30.06S
$$
                *** MANITOBA***

CITY           SKY/WX    TMP DP  RH WIND       PRES   REMARKS
BRANDON        CLEAR     59  55  88 NE5       30.14S
DAUPHIN        CLEAR     59  55  88 SW5       30.11S
ISLAND LAKE    PTCLDY    61  52  72 NE2       30.06S
PILOT MOUND      N/A     59  54  82 E2          N/A
THE PAS        PTCLDY    72  61  68 W3        30.06S
THOMPSON       PTCLDY    59  57  94 CALM      30.06S
WINNIPEG       CLEAR     57  54  88 W7        30.10R
LYNN LAKE      CLEAR     72  54  53 SE5       30.07S
CHURCHILL      CLEAR     57  54  88 SE7       30.08S
GILLAM         CLEAR     54  52  94 CALM      30.06S
$$
                ***SASKATCHEWAN***

CITY           SKY/WX    TMP DP  RH WIND       PRES   REMARKS
ESTEVAN        PTCLDY    61  54  77 NE6       30.18S
KINDERSLEY     PTCLDY    66  61  82 E12       30.13R
LLOYDMINSTER   CLEAR     70  61  73 SE10      30.12S
PRINCE ALBERT  MOCLDY    64  63  94 CALM      30.14S
REGINA         CLEAR     68  61  77 SE5       30.18R
YORKTON        CLEAR     68  59  73 W7        30.16R



USA.gov is the U.S. government's official web portal to all federal, state and local government web resources and services.